Time,TemperatureF,DewpointF,PressureIn,WindDirection,WindDirectionDegrees,WindSpeedMPH,WindSpeedGustMPH,Humidity,HourlyPrecipIn,Conditions,Clouds,dailyrainin,SoftwareType,DateUTC
2013-01-21 00:00:00,34.6,31.4,29.27,East,83,2.0,2.0,88,0.00,,,0.01,Wunderground v.1.15,2013-01-21 00:00:00,
2013-01-21 00:05:00,34.5,31.3,29.27,East,83,1.0,2.0,88,0.00,,,0.00,Wunderground v.1.15,2013-01-21 00:05:00,
2013-01-21 00:15:00,34.5,31.3,29.27,East,80,1.0,1.0,88,0.00,,,0.00,Wunderground v.1.15,2013-01-21 00:15:00,
2013-01-21 00:20:00,34.5,31.3,29.26,East,81,0.0,3.0,88,0.00,,,0.00,Wunderground v.1.15,2013-01-21 00:20:00,
2013-01-21 00:30:00,34.6,31.7,29.26,East,80,1.0,3.0,89,0.00,,,0.00,Wunderground v.1.15,2013-01-21 00:30:00,
2013-01-21 00:40:00,34.5,31.6,29.26,East,79,3.0,3.0,89,0.00,,,0.00,Wunderground v.1.15,2013-01-21 00:40:00,
2013-01-21 00:50:00,34.4,31.5,29.26,East,79,1.0,3.0,89,0.00,,,0.00,Wunderground v.1.15,2013-01-21 00:50:00,
2013-01-21 01:00:00,34.3,31.7,29.26,NE,56,2.0,3.0,90,0.00,,,0.00,Wunderground v.1.15,2013-01-21 01:00:00,
2013-01-21 01:10:00,34.1,31.5,29.26,NE,56,2.0,4.0,90,0.00,,,0.00,Wunderground v.1.15,2013-01-21 01:10:00,
2013-01-21 01:20:00,33.9,31.3,29.26,NE,50,3.0,5.0,90,0.00,,,0.00,Wunderground v.1.15,2013-01-21 01:20:00,
2013-01-21 01:30:00,33.8,31.5,29.26,NE,49,3.0,3.0,91,0.00,,,0.00,Wunderground v.1.15,2013-01-21 01:30:00,
2013-01-21 01:40:00,33.7,31.4,29.26,NE,49,2.0,2.0,91,0.00,,,0.00,Wunderground v.1.15,2013-01-21 01:40:00,
2013-01-21 01:50:00,33.7,31.4,29.27,NE,49,0.0,0.0,91,0.00,,,0.00,Wunderground v.1.15,2013-01-21 01:50:00,
2013-01-21 02:00:00,33.7,31.6,29.27,NE,49,0.0,0.0,92,0.00,,,0.00,Wunderground v.1.15,2013-01-21 02:00:00,
2013-01-21 02:05:00,33.7,31.6,29.27,NE,49,0.0,3.0,92,0.00,,,0.00,Wunderground v.1.15,2013-01-21 02:05:00,
2013-01-21 02:15:00,33.7,31.6,29.27,NE,49,3.0,3.0,92,0.00,,,0.00,Wunderground v.1.15,2013-01-21 02:15:00,
2013-01-21 02:25:00,33.7,31.6,29.27,NE,46,4.0,4.0,92,0.00,,,0.00,Wunderground v.1.15,2013-01-21 02:25:00,
2013-01-21 02:35:00,33.6,31.5,29.27,NE,42,4.0,4.0,92,0.00,,,0.00,Wunderground v.1.15,2013-01-21 02:35:00,
2013-01-21 02:45:00,33.6,31.5,29.27,NE,43,3.0,5.0,92,0.00,,,0.00,Wunderground v.1.15,2013-01-21 02:45:00,
2013-01-21 02:55:00,33.6,31.8,29.27,NE,52,3.0,7.0,93,0.00,,,0.00,Wunderground v.1.15,2013-01-21 02:55:00,
2013-01-21 03:05:00,33.5,31.7,29.27,ENE,59,3.0,4.0,93,0.00,,,0.00,Wunderground v.1.15,2013-01-21 03:05:00,
2013-01-21 03:15:00,33.6,31.8,29.27,NE,56,3.0,3.0,93,0.00,,,0.00,Wunderground v.1.15,2013-01-21 03:15:00,
2013-01-21 03:25:00,33.5,31.7,29.27,NE,55,3.0,4.0,93,0.00,,,0.00,Wunderground v.1.15,2013-01-21 03:25:00,
2013-01-21 03:30:00,33.5,31.7,29.27,NE,55,2.0,2.0,93,0.00,,,0.00,Wunderground v.1.15,2013-01-21 03:30:00,
2013-01-21 03:40:00,33.4,31.6,29.27,NE,55,2.0,2.0,93,0.00,,,0.00,Wunderground v.1.15,2013-01-21 03:40:00,
2013-01-21 03:50:00,33.4,31.6,29.27,NE,55,2.0,3.0,93,0.00,,,0.00,Wunderground v.1.15,2013-01-21 03:50:00,
2013-01-21 04:00:00,33.4,31.9,29.27,NE,55,2.0,3.0,94,0.00,,,0.00,Wunderground v.1.15,2013-01-21 04:00:00,
2013-01-21 04:05:00,33.4,31.9,29.27,NE,55,3.0,3.0,94,0.00,,,0.00,Wunderground v.1.15,2013-01-21 04:05:00,
2013-01-21 04:15:00,33.4,31.9,29.27,NE,55,2.0,2.0,94,0.00,,,0.00,Wunderground v.1.15,2013-01-21 04:15:00,
2013-01-21 04:20:00,33.4,31.9,29.27,NE,55,2.0,2.0,94,0.00,,,0.00,Wunderground v.1.15,2013-01-21 04:20:00,
2013-01-21 04:30:00,33.4,31.9,29.27,NE,55,1.0,1.0,94,0.00,,,0.00,Wunderground v.1.15,2013-01-21 04:30:00,
2013-01-21 04:40:00,33.4,31.9,29.28,NE,55,0.0,0.0,94,0.00,,,0.00,Wunderground v.1.15,2013-01-21 04:40:00,
2013-01-21 04:45:00,33.4,31.9,29.28,NE,55,0.0,0.0,94,0.00,,,0.00,Wunderground v.1.15,2013-01-21 04:45:00,
2013-01-21 04:55:00,33.4,31.9,29.27,NE,55,0.0,0.0,94,0.00,,,0.00,Wunderground v.1.15,2013-01-21 04:55:00,
2013-01-21 05:05:00,33.4,31.9,29.28,NE,55,0.0,0.0,94,0.00,,,0.00,Wunderground v.1.15,2013-01-21 05:05:00,
2013-01-21 05:10:00,33.4,31.9,29.28,NE,55,0.0,0.0,94,0.00,,,0.00,Wunderground v.1.15,2013-01-21 05:10:00,
2013-01-21 05:20:00,33.3,31.8,29.28,NE,55,0.0,0.0,94,0.00,,,0.00,Wunderground v.1.15,2013-01-21 05:20:00,
2013-01-21 05:25:00,33.4,31.9,29.28,NE,55,0.0,0.0,94,0.00,,,0.00,Wunderground v.1.15,2013-01-21 05:25:00,
2013-01-21 05:30:00,33.4,31.9,29.28,NE,55,0.0,0.0,94,0.00,,,0.00,Wunderground v.1.15,2013-01-21 05:30:00,
2013-01-21 05:40:00,33.4,31.9,29.28,NE,55,0.0,0.0,94,0.00,,,0.00,Wunderground v.1.15,2013-01-21 05:40:00,
2013-01-21 05:50:00,33.4,31.9,29.28,NE,55,0.0,0.0,94,0.00,,,0.00,Wunderground v.1.15,2013-01-21 05:50:00,
2013-01-21 06:00:00,33.4,31.9,29.28,NE,55,0.0,0.0,94,0.00,,,0.00,Wunderground v.1.15,2013-01-21 06:00:00,
2013-01-21 06:05:00,33.4,31.9,29.28,NE,55,0.0,1.0,94,0.00,,,0.00,Wunderground v.1.15,2013-01-21 06:05:00,
2013-01-21 06:15:00,33.4,32.1,29.28,NE,55,1.0,1.0,95,0.00,,,0.00,Wunderground v.1.15,2013-01-21 06:15:00,
2013-01-21 06:25:00,33.4,32.1,29.29,NE,55,0.0,2.0,95,0.00,,,0.00,Wunderground v.1.15,2013-01-21 06:25:00,
2013-01-21 06:35:00,33.5,32.2,29.30,NE,55,0.0,0.0,95,0.00,,,0.00,Wunderground v.1.15,2013-01-21 06:35:00,
2013-01-21 06:45:00,33.5,32.2,29.30,NE,55,0.0,0.0,95,0.00,,,0.00,Wunderground v.1.15,2013-01-21 06:45:00,
2013-01-21 06:50:00,33.6,32.3,29.30,NE,55,1.0,1.0,95,0.00,,,0.00,Wunderground v.1.15,2013-01-21 06:50:00,
2013-01-21 07:00:00,33.5,32.2,29.30,NE,55,0.0,1.0,95,0.00,,,0.00,Wunderground v.1.15,2013-01-21 07:00:00,
2013-01-21 07:05:00,33.5,32.2,29.30,NE,55,1.0,1.0,95,0.00,,,0.00,Wunderground v.1.15,2013-01-21 07:05:00,
2013-01-21 07:15:00,33.4,32.1,29.30,NE,55,1.0,3.0,95,0.00,,,0.00,Wunderground v.1.15,2013-01-21 07:15:00,
2013-01-21 07:20:00,33.4,32.1,29.31,ENE,58,2.0,2.0,95,0.00,,,0.00,Wunderground v.1.15,2013-01-21 07:20:00,
2013-01-21 07:30:00,33.3,32.0,29.31,NE,55,2.0,3.0,95,0.00,,,0.00,Wunderground v.1.15,2013-01-21 07:30:00,
2013-01-21 07:40:00,33.2,31.9,29.31,West,265,3.0,4.0,95,0.00,,,0.00,Wunderground v.1.15,2013-01-21 07:40:00,
2013-01-21 07:45:00,33.2,31.9,29.31,WSW,242,3.0,4.0,95,0.00,,,0.00,Wunderground v.1.15,2013-01-21 07:45:00,
2013-01-21 07:55:00,33.1,31.8,29.32,WSW,242,2.0,2.0,95,0.00,,,0.00,Wunderground v.1.15,2013-01-21 07:55:00,
2013-01-21 08:05:00,33.0,31.7,29.32,WSW,241,3.0,4.0,95,0.00,,,0.00,Wunderground v.1.15,2013-01-21 08:05:00,
2013-01-21 08:15:00,33.0,31.7,29.32,WSW,241,1.0,2.0,95,0.00,,,0.00,Wunderground v.1.15,2013-01-21 08:15:00,
2013-01-21 08:20:00,33.0,31.7,29.33,WSW,242,1.0,2.0,95,0.00,,,0.00,Wunderground v.1.15,2013-01-21 08:20:00,
2013-01-21 08:30:00,32.9,31.6,29.33,WSW,242,1.0,3.0,95,0.00,,,0.00,Wunderground v.1.15,2013-01-21 08:30:00,
2013-01-21 08:40:00,32.9,31.6,29.33,WSW,241,1.0,1.0,95,0.00,,,0.00,Wunderground v.1.15,2013-01-21 08:40:00,
2013-01-21 08:45:00,32.9,31.6,29.33,WSW,242,0.0,1.0,95,0.00,,,0.00,Wunderground v.1.15,2013-01-21 08:45:00,
2013-01-21 08:55:00,32.8,31.5,29.33,WSW,242,0.0,0.0,95,0.00,,,0.00,Wunderground v.1.15,2013-01-21 08:55:00,
2013-01-21 09:05:00,32.9,31.9,29.33,WSW,242,0.0,0.0,96,0.00,,,0.00,Wunderground v.1.15,2013-01-21 09:05:00,
2013-01-21 09:15:00,32.8,31.8,29.33,WSW,241,0.0,0.0,96,0.00,,,0.00,Wunderground v.1.15,2013-01-21 09:15:00,
2013-01-21 09:25:00,32.8,31.8,29.33,WSW,241,0.0,0.0,96,0.00,,,0.00,Wunderground v.1.15,2013-01-21 09:25:00,
2013-01-21 09:35:00,32.8,31.8,29.33,WSW,242,0.0,0.0,96,0.00,,,0.00,Wunderground v.1.15,2013-01-21 09:35:00,
2013-01-21 09:45:00,32.8,31.8,29.33,WSW,241,0.0,0.0,96,0.00,,,0.00,Wunderground v.1.15,2013-01-21 09:45:00,
2013-01-21 09:55:00,32.9,31.9,29.33,WSW,242,0.0,0.0,96,0.00,,,0.00,Wunderground v.1.15,2013-01-21 09:55:00,
2013-01-21 10:05:00,32.9,31.9,29.33,WSW,241,0.0,0.0,96,0.00,,,0.00,Wunderground v.1.15,2013-01-21 10:05:00,
2013-01-21 10:15:00,33.0,32.0,29.33,WSW,242,0.0,0.0,96,0.00,,,0.00,Wunderground v.1.15,2013-01-21 10:15:00,
2013-01-21 10:25:00,33.1,32.1,29.33,WSW,242,0.0,0.0,96,0.00,,,0.00,Wunderground v.1.15,2013-01-21 10:25:00,
2013-01-21 10:35:00,33.2,32.2,29.33,SW,233,0.0,0.0,96,0.00,,,0.00,Wunderground v.1.15,2013-01-21 10:35:00,
2013-01-21 10:45:00,33.4,32.4,29.33,SW,233,0.0,0.0,96,0.00,,,0.00,Wunderground v.1.15,2013-01-21 10:45:00,
2013-01-21 10:50:00,33.5,32.5,29.32,SW,233,0.0,0.0,96,0.00,,,0.00,Wunderground v.1.15,2013-01-21 10:50:00,
2013-01-21 11:00:00,33.8,32.8,29.32,SW,233,0.0,0.0,96,0.00,,,0.00,Wunderground v.1.15,2013-01-21 11:00:00,
2013-01-21 11:05:00,33.9,32.9,29.32,SW,232,0.0,0.0,96,0.00,,,0.01,Wunderground v.1.15,2013-01-21 11:05:00,
2013-01-21 11:15:00,33.9,32.9,29.32,SSW,199,0.0,0.0,96,0.00,,,0.01,Wunderground v.1.15,2013-01-21 11:15:00,
2013-01-21 11:20:00,33.9,32.9,29.31,SSW,200,0.0,0.0,96,0.05,,,0.02,Wunderground v.1.15,2013-01-21 11:20:00,
2013-01-21 11:30:00,34.0,33.2,29.31,SSW,200,0.0,0.0,97,0.07,,,0.02,Wunderground v.1.15,2013-01-21 11:30:00,
2013-01-21 11:40:00,34.1,33.1,29.32,SSW,200,2.0,4.0,96,0.04,,,0.03,Wunderground v.1.15,2013-01-21 11:40:00,
2013-01-21 11:45:00,34.0,33.0,29.32,SSW,200,3.0,4.0,96,0.04,,,0.03,Wunderground v.1.15,2013-01-21 11:45:00,
2013-01-21 11:55:00,33.9,32.9,29.32,SSW,197,3.0,4.0,96,0.05,,,0.04,Wunderground v.1.15,2013-01-21 11:55:00,
2013-01-21 12:05:00,33.5,32.5,29.32,SSW,212,4.0,6.0,96,0.04,,,0.04,Wunderground v.1.15,2013-01-21 12:05:00,
2013-01-21 12:15:00,33.7,32.9,29.32,SSW,196,3.0,5.0,97,0.00,,,0.04,Wunderground v.1.15,2013-01-21 12:15:00,
2013-01-21 12:25:00,34.3,33.5,29.31,SW,219,5.0,6.0,97,0.00,,,0.05,Wunderground v.1.15,2013-01-21 12:25:00,
2013-01-21 12:30:00,34.4,33.6,29.31,SW,233,5.0,5.0,97,0.00,,,0.05,Wunderground v.1.15,2013-01-21 12:30:00,
2013-01-21 12:40:00,34.4,33.6,29.31,SW,229,4.0,6.0,97,0.00,,,0.06,Wunderground v.1.15,2013-01-21 12:40:00,
2013-01-21 12:50:00,34.4,33.6,29.31,WSW,241,5.0,5.0,97,0.00,,,0.06,Wunderground v.1.15,2013-01-21 12:50:00,
2013-01-21 13:00:00,34.4,33.6,29.31,SW,234,6.0,6.0,97,0.00,,,0.06,Wunderground v.1.15,2013-01-21 13:00:00,
2013-01-21 13:05:00,34.4,33.6,29.31,WSW,249,6.0,7.0,97,0.00,,,0.06,Wunderground v.1.15,2013-01-21 13:05:00,
2013-01-21 13:15:00,34.5,33.7,29.31,SW,223,7.0,8.0,97,0.00,,,0.06,Wunderground v.1.15,2013-01-21 13:15:00,
2013-01-21 13:25:00,34.6,33.8,29.30,WSW,245,5.0,6.0,97,0.00,,,0.06,Wunderground v.1.15,2013-01-21 13:25:00,
2013-01-21 13:30:00,34.7,33.9,29.30,WSW,241,5.0,5.0,97,0.00,,,0.06,Wunderground v.1.15,2013-01-21 13:30:00,
2013-01-21 13:40:00,35.0,34.2,29.30,SW,221,4.0,4.0,97,0.00,,,0.06,Wunderground v.1.15,2013-01-21 13:40:00,
2013-01-21 13:50:00,35.5,34.7,29.30,WSW,250,4.0,4.0,97,0.00,,,0.06,Wunderground v.1.15,2013-01-21 13:50:00,
2013-01-21 14:00:00,36.0,35.2,29.30,NNW,336,5.0,5.0,97,0.00,,,0.06,Wunderground v.1.15,2013-01-21 14:00:00,
2013-01-21 14:05:00,36.2,35.4,29.30,NNE,12,5.0,5.0,97,0.00,,,0.06,Wunderground v.1.15,2013-01-21 14:05:00,
2013-01-21 14:15:00,37.1,36.3,29.30,WNW,303,3.0,4.0,97,0.00,,,0.06,Wunderground v.1.15,2013-01-21 14:15:00,
2013-01-21 14:25:00,38.1,37.6,29.29,West,260,5.0,8.0,98,0.00,,,0.07,Wunderground v.1.15,2013-01-21 14:25:00,
2013-01-21 14:35:00,38.1,37.3,29.29,West,269,6.0,6.0,97,0.00,,,0.07,Wunderground v.1.15,2013-01-21 14:35:00,
2013-01-21 14:45:00,37.6,36.8,29.29,SW,236,6.0,8.0,97,0.00,,,0.07,Wunderground v.1.15,2013-01-21 14:45:00,
2013-01-21 14:55:00,37.1,36.3,29.29,SW,236,5.0,6.0,97,0.00,,,0.07,Wunderground v.1.15,2013-01-21 14:55:00,
2013-01-21 15:05:00,37.0,36.2,29.28,South,182,5.0,5.0,97,0.00,,,0.07,Wunderground v.1.15,2013-01-21 15:05:00,
2013-01-21 15:15:00,36.9,35.9,29.28,SW,215,3.0,4.0,96,0.00,,,0.07,Wunderground v.1.15,2013-01-21 15:15:00,
2013-01-21 15:20:00,36.9,35.9,29.28,SW,214,2.0,2.0,96,0.00,,,0.07,Wunderground v.1.15,2013-01-21 15:20:00,
2013-01-21 15:30:00,36.8,35.8,29.28,SW,216,2.0,3.0,96,0.00,,,0.07,Wunderground v.1.15,2013-01-21 15:30:00,
2013-01-21 15:40:00,36.7,35.7,29.28,SW,215,3.0,3.0,96,0.00,,,0.07,Wunderground v.1.15,2013-01-21 15:40:00,
2013-01-21 15:50:00,36.5,35.5,29.27,SW,216,2.0,2.0,96,0.00,,,0.07,Wunderground v.1.15,2013-01-21 15:50:00,
2013-01-21 16:00:00,36.5,35.5,29.27,SW,216,0.0,0.0,96,0.00,,,0.07,Wunderground v.1.15,2013-01-21 16:00:00,
2013-01-21 16:05:00,36.4,35.1,29.27,SW,216,0.0,1.0,95,0.00,,,0.07,Wunderground v.1.15,2013-01-21 16:05:00,
2013-01-21 16:15:00,36.3,35.0,29.27,SW,215,0.0,1.0,95,0.00,,,0.07,Wunderground v.1.15,2013-01-21 16:15:00,
2013-01-21 16:25:00,36.2,34.9,29.27,SW,216,0.0,0.0,95,0.00,,,0.07,Wunderground v.1.15,2013-01-21 16:25:00,
2013-01-21 16:35:00,35.9,34.6,29.27,SW,216,0.0,0.0,95,0.00,,,0.07,Wunderground v.1.15,2013-01-21 16:35:00,
2013-01-21 16:45:00,35.8,34.5,29.27,SW,216,0.0,0.0,95,0.00,,,0.07,Wunderground v.1.15,2013-01-21 16:45:00,
2013-01-21 16:55:00,35.3,34.0,29.27,SW,216,0.0,0.0,95,0.00,,,0.07,Wunderground v.1.15,2013-01-21 16:55:00,
2013-01-21 17:05:00,34.9,33.6,29.27,SW,215,0.0,0.0,95,0.00,,,0.07,Wunderground v.1.15,2013-01-21 17:05:00,
2013-01-21 17:15:00,34.6,33.1,29.27,SW,216,0.0,0.0,94,0.00,,,0.07,Wunderground v.1.15,2013-01-21 17:15:00,
2013-01-21 17:25:00,34.2,32.7,29.27,SW,216,1.0,3.0,94,0.00,,,0.07,Wunderground v.1.15,2013-01-21 17:25:00,
2013-01-21 17:35:00,33.9,32.4,29.27,SW,216,0.0,2.0,94,0.00,,,0.07,Wunderground v.1.15,2013-01-21 17:35:00,
2013-01-21 17:45:00,33.6,32.1,29.27,SW,215,1.0,1.0,94,0.00,,,0.07,Wunderground v.1.15,2013-01-21 17:45:00,
2013-01-21 17:50:00,33.5,32.0,29.27,SW,215,0.0,0.0,94,0.00,,,0.07,Wunderground v.1.15,2013-01-21 17:50:00,
2013-01-21 18:00:00,33.3,31.8,29.27,SW,215,0.0,0.0,94,0.00,,,0.07,Wunderground v.1.15,2013-01-21 18:00:00,
2013-01-21 18:05:00,33.1,31.6,29.27,SW,216,0.0,0.0,94,0.00,,,0.07,Wunderground v.1.15,2013-01-21 18:05:00,
2013-01-21 18:15:00,32.8,31.3,29.27,SW,216,0.0,0.0,94,0.00,,,0.07,Wunderground v.1.15,2013-01-21 18:15:00,
2013-01-21 18:20:00,32.7,31.2,29.27,SW,216,0.0,0.0,94,0.00,,,0.07,Wunderground v.1.15,2013-01-21 18:20:00,
2013-01-21 18:30:00,32.4,30.9,29.27,SW,215,0.0,0.0,94,0.00,,,0.07,Wunderground v.1.15,2013-01-21 18:30:00,
2013-01-21 18:40:00,32.1,30.6,29.27,SW,215,0.0,0.0,94,0.00,,,0.07,Wunderground v.1.15,2013-01-21 18:40:00,
2013-01-21 18:50:00,31.8,30.3,29.27,SW,216,0.0,0.0,94,0.00,,,0.07,Wunderground v.1.15,2013-01-21 18:50:00,
2013-01-21 19:00:00,31.5,30.0,29.27,SW,216,1.0,1.0,94,0.00,,,0.07,Wunderground v.1.15,2013-01-21 19:00:00,
2013-01-21 19:05:00,31.4,29.9,29.27,SW,216,1.0,2.0,94,0.00,,,0.07,Wunderground v.1.15,2013-01-21 19:05:00,
2013-01-21 19:15:00,31.2,29.7,29.27,SW,215,0.0,1.0,94,0.00,,,0.07,Wunderground v.1.15,2013-01-21 19:15:00,
2013-01-21 19:20:00,31.1,29.6,29.27,SW,216,1.0,3.0,94,0.00,,,0.07,Wunderground v.1.15,2013-01-21 19:20:00,
2013-01-21 19:30:00,31.3,29.8,29.27,North,355,3.0,3.0,94,0.00,,,0.07,Wunderground v.1.15,2013-01-21 19:30:00,
2013-01-21 19:35:00,31.4,30.1,29.27,North,355,2.0,3.0,95,0.00,,,0.07,Wunderground v.1.15,2013-01-21 19:35:00,
2013-01-21 19:45:00,31.6,30.3,29.27,North,355,1.0,2.0,95,0.00,,,0.07,Wunderground v.1.15,2013-01-21 19:45:00,
2013-01-21 19:55:00,31.5,30.2,29.27,North,355,0.0,1.0,95,0.00,,,0.07,Wunderground v.1.15,2013-01-21 19:55:00,
2013-01-21 20:00:00,31.5,30.2,29.27,North,355,0.0,0.0,95,0.00,,,0.07,Wunderground v.1.15,2013-01-21 20:00:00,
2013-01-21 20:05:00,31.4,30.1,29.27,North,355,0.0,0.0,95,0.00,,,0.07,Wunderground v.1.15,2013-01-21 20:05:00,
2013-01-21 20:15:00,31.2,29.9,29.27,North,355,1.0,2.0,95,0.00,,,0.07,Wunderground v.1.15,2013-01-21 20:15:00,
2013-01-21 20:25:00,31.2,29.9,29.27,North,355,2.0,4.0,95,0.00,,,0.07,Wunderground v.1.15,2013-01-21 20:25:00,
2013-01-21 20:30:00,31.4,30.1,29.27,North,355,3.0,4.0,95,0.00,,,0.07,Wunderground v.1.15,2013-01-21 20:30:00,
2013-01-21 20:40:00,31.4,30.1,29.27,North,355,3.0,3.0,95,0.00,,,0.07,Wunderground v.1.15,2013-01-21 20:40:00,
2013-01-21 20:45:00,31.3,30.0,29.27,North,355,3.0,3.0,95,0.00,,,0.07,Wunderground v.1.15,2013-01-21 20:45:00,
2013-01-21 20:55:00,31.3,30.0,29.27,North,355,2.0,2.0,95,0.00,,,0.07,Wunderground v.1.15,2013-01-21 20:55:00,
2013-01-21 21:00:00,31.3,30.0,29.27,North,355,1.0,1.0,95,0.00,,,0.07,Wunderground v.1.15,2013-01-21 21:00:00,
2013-01-21 21:05:00,31.2,29.9,29.28,North,355,0.0,1.0,95,0.00,,,0.07,Wunderground v.1.15,2013-01-21 21:05:00,
2013-01-21 21:15:00,31.0,29.7,29.28,North,355,0.0,2.0,95,0.00,,,0.07,Wunderground v.1.15,2013-01-21 21:15:00,
2013-01-21 21:25:00,30.7,29.4,29.28,North,355,1.0,2.0,95,0.00,,,0.07,Wunderground v.1.15,2013-01-21 21:25:00,
2013-01-21 21:30:00,30.6,29.3,29.28,North,355,0.0,0.0,95,0.00,,,0.07,Wunderground v.1.15,2013-01-21 21:30:00,
2013-01-21 21:40:00,30.5,29.2,29.29,North,355,1.0,2.0,95,0.00,,,0.07,Wunderground v.1.15,2013-01-21 21:40:00,
2013-01-21 21:50:00,30.3,29.0,29.29,North,355,0.0,0.0,95,0.00,,,0.07,Wunderground v.1.15,2013-01-21 21:50:00,
2013-01-21 21:55:00,30.2,28.9,29.29,North,355,0.0,1.0,95,0.00,,,0.07,Wunderground v.1.15,2013-01-21 21:55:00,
2013-01-21 22:05:00,30.1,29.1,29.29,North,355,2.0,2.0,96,0.00,,,0.07,Wunderground v.1.15,2013-01-21 22:05:00,
2013-01-21 22:15:00,30.2,28.9,29.29,North,355,1.0,3.0,95,0.00,,,0.07,Wunderground v.1.15,2013-01-21 22:15:00,
2013-01-21 22:20:00,30.4,29.4,29.29,North,355,2.0,2.0,96,0.00,,,0.07,Wunderground v.1.15,2013-01-21 22:20:00,
2013-01-21 22:30:00,30.5,29.5,29.29,North,355,1.0,2.0,96,0.00,,,0.07,Wunderground v.1.15,2013-01-21 22:30:00,
2013-01-21 22:40:00,30.4,29.4,29.29,North,355,0.0,3.0,96,0.00,,,0.07,Wunderground v.1.15,2013-01-21 22:40:00,
2013-01-21 22:45:00,30.5,29.5,29.29,North,355,2.0,3.0,96,0.00,,,0.07,Wunderground v.1.15,2013-01-21 22:45:00,
2013-01-21 22:55:00,30.6,29.6,29.30,North,355,4.0,4.0,96,0.00,,,0.07,Wunderground v.1.15,2013-01-21 22:55:00,
2013-01-21 23:00:00,30.7,29.7,29.30,North,355,4.0,5.0,96,0.00,,,0.07,Wunderground v.1.15,2013-01-21 23:00:00,
2013-01-21 23:05:00,30.6,29.6,29.30,North,355,4.0,5.0,96,0.00,,,0.07,Wunderground v.1.15,2013-01-21 23:05:00,
2013-01-21 23:15:00,30.7,29.7,29.30,North,355,4.0,4.0,96,0.00,,,0.07,Wunderground v.1.15,2013-01-21 23:15:00,
2013-01-21 23:25:00,30.9,29.9,29.30,North,5,4.0,5.0,96,0.00,,,0.07,Wunderground v.1.15,2013-01-21 23:25:00,
2013-01-21 23:35:00,31.1,30.1,29.30,North,5,4.0,5.0,96,0.00,,,0.07,Wunderground v.1.15,2013-01-21 23:35:00,
2013-01-21 23:45:00,30.8,29.8,29.30,North,349,4.0,4.0,96,0.00,,,0.07,Wunderground v.1.15,2013-01-21 23:45:00,
2013-01-21 23:55:00,30.5,29.5,29.30,North,355,4.0,4.0,96,0.00,,,0.07,Wunderground v.1.15,2013-01-21 23:55:00,